Time,TemperatureF,DewpointF,PressureIn,WindDirection,WindDirectionDegrees,WindSpeedMPH,WindSpeedGustMPH,Humidity,HourlyPrecipIn,Conditions,Clouds,dailyrainin,SoftwareType,DateUTC
2013-05-15 00:00:00,53.2,45.1,30.14,East,91,1.0,5.0,74,0.00,,---,0.00,VWS V14.01,2013-05-15 07:00:00,
2013-05-15 00:01:00,53.2,45.1,30.14,East,91,1.0,5.0,74,0.00,,---,0.00,VWS V14.01,2013-05-15 07:01:00,
2013-05-15 00:06:00,53.2,45.1,30.14,ESE,107,2.0,4.0,74,0.00,,---,0.00,VWS V14.01,2013-05-15 07:06:00,
2013-05-15 00:11:00,53.1,45.0,30.14,NW,313,2.0,4.0,74,0.00,,---,0.00,VWS V14.01,2013-05-15 07:11:00,
2013-05-15 00:15:00,53.1,45.0,30.14,NE,38,2.0,5.0,74,0.00,,---,0.00,VWS V14.01,2013-05-15 07:15:00,
2013-05-15 00:16:00,53.1,45.0,30.14,ENE,67,3.0,5.0,74,0.00,,---,0.00,VWS V14.01,2013-05-15 07:16:00,
2013-05-15 00:21:00,53.0,45.0,30.14,NNW,344,2.0,4.0,74,0.00,,---,0.00,VWS V14.01,2013-05-15 07:21:00,
2013-05-15 00:26:00,52.9,44.8,30.14,WNW,300,0.0,5.0,74,0.00,,---,0.00,VWS V14.01,2013-05-15 07:26:00,
2013-05-15 00:31:00,52.8,44.8,30.13,WNW,298,0.0,5.0,74,0.00,,---,0.00,VWS V14.01,2013-05-15 07:31:00,
2013-05-15 00:36:00,52.8,45.1,30.14,WNW,302,1.0,3.0,75,0.00,,---,0.00,VWS V14.01,2013-05-15 07:36:00,
2013-05-15 00:41:00,52.8,45.1,30.14,WNW,291,1.0,4.0,75,0.00,,---,0.00,VWS V14.01,2013-05-15 07:41:00,
2013-05-15 00:46:00,52.8,45.1,30.13,East,80,2.0,4.0,75,0.00,,---,0.00,VWS V14.01,2013-05-15 07:46:00,
2013-05-15 00:51:00,52.7,45.0,30.13,ENE,63,0.0,5.0,75,0.00,,---,0.00,VWS V14.01,2013-05-15 07:51:00,
2013-05-15 00:55:00,52.6,45.3,30.13,NNE,20,2.0,5.0,76,0.00,,---,0.00,VWS V14.01,2013-05-15 07:55:00,
2013-05-15 01:00:00,52.5,45.2,30.13,NNW,341,3.0,5.0,76,0.00,,---,0.00,VWS V14.01,2013-05-15 08:00:00,
2013-05-15 01:05:00,52.5,45.5,30.13,NE,35,1.0,5.0,77,0.00,,---,0.00,VWS V14.01,2013-05-15 08:05:00,
2013-05-15 01:10:00,52.5,45.5,30.13,NNE,30,0.0,6.0,77,0.00,,---,0.00,VWS V14.01,2013-05-15 08:10:00,
2013-05-15 01:15:00,52.6,45.6,30.13,NNE,30,1.0,6.0,77,0.00,,---,0.00,VWS V14.01,2013-05-15 08:15:00,
2013-05-15 01:20:00,52.5,45.5,30.13,NNE,30,2.0,2.0,77,0.00,,---,0.00,VWS V14.01,2013-05-15 08:20:00,
2013-05-15 01:25:00,52.5,45.5,30.12,NNE,30,0.0,2.0,77,0.00,,---,0.00,VWS V14.01,2013-05-15 08:25:00,
2013-05-15 01:30:00,52.5,45.5,30.13,NNE,30,1.0,2.0,77,0.00,,---,0.00,VWS V14.01,2013-05-15 08:30:00,
2013-05-15 01:35:00,52.5,45.5,30.13,NNE,30,0.0,2.0,77,0.00,,---,0.00,VWS V14.01,2013-05-15 08:35:00,
2013-05-15 01:40:00,52.5,45.5,30.13,NNE,30,0.0,3.0,77,0.00,,---,0.00,VWS V14.01,2013-05-15 08:40:00,
2013-05-15 01:45:00,52.4,45.4,30.13,NNE,28,0.0,3.0,77,0.00,,---,0.00,VWS V14.01,2013-05-15 08:45:00,
2013-05-15 01:50:00,52.4,45.4,30.13,NE,42,0.0,2.0,77,0.00,,---,0.00,VWS V14.01,2013-05-15 08:50:00,
2013-05-15 01:55:00,52.3,45.7,30.12,NE,51,1.0,3.0,78,0.00,,---,0.00,VWS V14.01,2013-05-15 08:55:00,
2013-05-15 02:00:00,52.3,45.3,30.12,ESE,102,1.0,6.0,77,0.00,,---,0.00,VWS V14.01,2013-05-15 09:00:00,
2013-05-15 02:05:00,52.3,45.3,30.12,ESE,102,0.0,4.0,77,0.00,,---,0.00,VWS V14.01,2013-05-15 09:05:00,
2013-05-15 02:10:00,52.4,45.4,30.12,East,84,1.0,4.0,77,0.00,,---,0.00,VWS V14.01,2013-05-15 09:10:00,
2013-05-15 02:15:00,52.4,45.4,30.12,East,84,2.0,4.0,77,0.00,,---,0.00,VWS V14.01,2013-05-15 09:15:00,
2013-05-15 02:20:00,52.3,45.3,30.12,East,84,0.0,3.0,77,0.00,,---,0.00,VWS V14.01,2013-05-15 09:20:00,
2013-05-15 02:25:00,52.3,45.3,30.12,East,84,0.0,3.0,77,0.00,,---,0.00,VWS V14.01,2013-05-15 09:25:00,
2013-05-15 02:30:00,52.3,45.3,30.12,South,183,1.0,5.0,77,0.00,,---,0.00,VWS V14.01,2013-05-15 09:30:00,
2013-05-15 02:35:00,52.2,45.6,30.12,West,267,1.0,4.0,78,0.00,,---,0.00,VWS V14.01,2013-05-15 09:35:00,
2013-05-15 02:40:00,52.1,45.1,30.12,West,267,2.0,4.0,77,0.00,,---,0.00,VWS V14.01,2013-05-15 09:40:00,
2013-05-15 02:45:00,51.9,44.6,30.12,West,267,1.0,4.0,76,0.00,,---,0.00,VWS V14.01,2013-05-15 09:45:00,
2013-05-15 02:50:00,51.7,44.0,30.12,SW,235,4.0,5.0,75,0.00,,---,0.00,VWS V14.01,2013-05-15 09:50:00,
2013-05-15 02:55:00,51.6,44.0,30.12,South,188,3.0,5.0,75,0.00,,---,0.00,VWS V14.01,2013-05-15 09:55:00,
2013-05-15 03:00:00,51.6,44.0,30.12,South,188,3.0,5.0,75,0.00,,---,0.00,VWS V14.01,2013-05-15 10:00:00,
2013-05-15 03:05:00,51.6,45.0,30.12,WSW,242,2.0,4.0,78,0.00,,---,0.00,VWS V14.01,2013-05-15 10:05:00,
2013-05-15 03:10:00,51.3,45.3,30.12,WSW,242,3.0,4.0,80,0.00,,---,0.00,VWS V14.01,2013-05-15 10:10:00,
2013-05-15 03:15:00,51.2,45.2,30.12,WSW,242,2.0,4.0,80,0.00,,---,0.00,VWS V14.01,2013-05-15 10:15:00,
2013-05-15 03:20:00,51.2,44.9,30.11,WSW,242,2.0,4.0,79,0.00,,---,0.00,VWS V14.01,2013-05-15 10:20:00,
2013-05-15 03:25:00,51.2,45.2,30.11,WSW,242,1.0,4.0,80,0.00,,---,0.00,VWS V14.01,2013-05-15 10:25:00,
2013-05-15 03:30:00,51.1,45.2,30.11,WSW,242,0.0,4.0,80,0.00,,---,0.00,VWS V14.01,2013-05-15 10:30:00,
2013-05-15 03:35:00,51.1,45.5,30.11,WSW,242,0.0,3.0,81,0.00,,---,0.00,VWS V14.01,2013-05-15 10:35:00,
2013-05-15 03:40:00,51.0,45.1,30.11,WSW,242,2.0,3.0,80,0.00,,---,0.00,VWS V14.01,2013-05-15 10:40:00,
2013-05-15 03:45:00,51.0,45.1,30.11,WSW,242,2.0,3.0,80,0.00,,---,0.00,VWS V14.01,2013-05-15 10:45:00,
2013-05-15 03:50:00,51.0,45.1,30.11,WSW,242,3.0,4.0,80,0.00,,---,0.00,VWS V14.01,2013-05-15 10:50:00,
2013-05-15 03:55:00,51.0,44.7,30.11,WSW,241,1.0,5.0,79,0.00,,---,0.00,VWS V14.01,2013-05-15 10:55:00,
2013-05-15 04:00:00,51.1,45.2,30.11,WSW,240,0.0,5.0,80,0.00,,---,0.00,VWS V14.01,2013-05-15 11:00:00,
2013-05-15 04:06:00,51.1,45.2,30.11,WSW,241,1.0,3.0,80,0.00,,---,0.00,VWS V14.01,2013-05-15 11:06:00,
2013-05-15 04:11:00,51.1,45.2,30.11,WSW,241,0.0,3.0,80,0.00,,---,0.00,VWS V14.01,2013-05-15 11:11:00,
2013-05-15 04:15:00,51.0,45.1,30.11,WSW,241,1.0,3.0,80,0.00,,---,0.00,VWS V14.01,2013-05-15 11:15:00,
2013-05-15 04:16:00,51.1,45.2,30.11,WSW,241,1.0,3.0,80,0.00,,---,0.00,VWS V14.01,2013-05-15 11:16:00,
2013-05-15 04:21:00,51.0,45.1,30.11,WSW,241,1.0,2.0,80,0.00,,---,0.00,VWS V14.01,2013-05-15 11:21:00,
2013-05-15 04:26:00,51.0,45.1,30.11,WSW,240,1.0,2.0,80,0.00,,---,0.00,VWS V14.01,2013-05-15 11:26:00,
2013-05-15 04:30:00,51.0,45.4,30.11,WSW,238,3.0,4.0,81,0.00,,---,0.00,VWS V14.01,2013-05-15 11:30:00,
2013-05-15 04:31:00,51.0,45.4,30.11,WSW,238,3.0,3.0,81,0.00,,---,0.00,VWS V14.01,2013-05-15 11:31:00,
2013-05-15 04:36:00,51.0,45.4,30.11,WSW,238,0.0,3.0,81,0.00,,---,0.00,VWS V14.01,2013-05-15 11:36:00,
2013-05-15 04:41:00,51.0,45.1,30.11,WSW,238,1.0,3.0,80,0.00,,---,0.00,VWS V14.01,2013-05-15 11:41:00,
2013-05-15 04:45:00,50.9,45.0,30.11,WSW,238,1.0,3.0,80,0.00,,---,0.00,VWS V14.01,2013-05-15 11:45:00,
2013-05-15 04:46:00,50.9,45.0,30.10,WSW,238,0.0,2.0,80,0.00,,---,0.00,VWS V14.01,2013-05-15 11:46:00,
2013-05-15 04:51:00,50.9,45.0,30.10,WSW,238,0.0,3.0,80,0.00,,---,0.00,VWS V14.01,2013-05-15 11:51:00,
2013-05-15 04:57:00,50.8,45.2,30.10,WSW,237,2.0,6.0,81,0.00,,---,0.00,VWS V14.01,2013-05-15 11:57:00,
2013-05-15 05:00:00,50.8,44.9,30.10,WSW,237,0.0,6.0,80,0.00,,---,0.00,VWS V14.01,2013-05-15 12:00:00,
2013-05-15 05:02:00,50.8,45.2,30.10,SW,232,4.0,4.0,81,0.00,,---,0.00,VWS V14.01,2013-05-15 12:02:00,
2013-05-15 05:07:00,50.7,45.1,30.10,SW,227,2.0,4.0,81,0.00,,---,0.00,VWS V14.01,2013-05-15 12:07:00,
2013-05-15 05:12:00,50.6,44.7,30.10,SW,226,3.0,4.0,80,0.00,,---,0.00,VWS V14.01,2013-05-15 12:12:00,
2013-05-15 05:15:00,50.6,44.7,30.10,SW,226,1.0,5.0,80,0.00,,---,0.00,VWS V14.01,2013-05-15 12:15:00,
2013-05-15 05:17:00,50.6,44.7,30.10,SW,226,1.0,3.0,80,0.00,,---,0.00,VWS V14.01,2013-05-15 12:17:00,
2013-05-15 05:22:00,50.5,44.6,30.10,SW,226,1.0,3.0,80,0.00,,---,0.00,VWS V14.01,2013-05-15 12:22:00,
2013-05-15 05:27:00,50.5,44.6,30.10,SW,226,0.0,3.0,80,0.00,,---,0.00,VWS V14.01,2013-05-15 12:27:00,
2013-05-15 05:30:00,50.5,44.9,30.10,SW,227,0.0,3.0,81,0.00,,---,0.00,VWS V14.01,2013-05-15 12:30:00,
2013-05-15 05:32:00,50.6,44.7,30.10,SW,226,0.0,1.0,80,0.00,,---,0.00,VWS V14.01,2013-05-15 12:32:00,
2013-05-15 05:37:00,50.7,44.8,30.10,SW,227,0.0,3.0,80,0.00,,---,0.00,VWS V14.01,2013-05-15 12:37:00,
2013-05-15 05:42:00,50.7,44.8,30.10,SW,217,2.0,4.0,80,0.00,,---,0.00,VWS V14.01,2013-05-15 12:42:00,
2013-05-15 05:45:00,50.6,44.3,30.10,SW,216,0.0,4.0,79,0.00,,---,0.00,VWS V14.01,2013-05-15 12:45:00,
2013-05-15 05:48:00,50.5,44.2,30.10,SW,214,2.0,3.0,79,0.00,,---,0.00,VWS V14.01,2013-05-15 12:48:00,
2013-05-15 05:53:00,50.4,44.1,30.10,SSW,209,1.0,6.0,79,0.00,,---,0.00,VWS V14.01,2013-05-15 12:53:00,
2013-05-15 05:58:00,50.3,44.0,30.10,SSW,209,0.0,6.0,79,0.00,,---,0.00,VWS V14.01,2013-05-15 12:58:00,
2013-05-15 06:00:00,50.2,44.0,30.10,SSW,209,0.0,6.0,79,0.00,,---,0.00,VWS V14.01,2013-05-15 13:00:00,
2013-05-15 06:03:00,50.1,43.8,30.10,SSW,209,1.0,2.0,79,0.00,,---,0.00,VWS V14.01,2013-05-15 13:03:00,
2013-05-15 06:08:00,50.1,44.2,30.10,SSW,209,0.0,3.0,80,0.00,,---,0.00,VWS V14.01,2013-05-15 13:08:00,
2013-05-15 06:13:00,50.1,44.2,30.10,SW,214,2.0,4.0,80,0.00,,---,0.00,VWS V14.01,2013-05-15 13:13:00,
2013-05-15 06:15:00,50.1,44.5,30.10,SW,217,2.0,4.0,81,0.00,,---,0.00,VWS V14.01,2013-05-15 13:15:00,
2013-05-15 06:18:00,50.0,44.7,30.10,SW,230,4.0,5.0,82,0.00,,---,0.00,VWS V14.01,2013-05-15 13:18:00,
2013-05-15 06:23:00,49.8,45.2,30.10,West,262,3.0,6.0,84,0.00,,---,0.00,VWS V14.01,2013-05-15 13:23:00,
2013-05-15 06:28:00,49.7,45.4,30.10,West,262,2.0,6.0,85,0.00,,---,0.00,VWS V14.01,2013-05-15 13:28:00,
2013-05-15 06:30:00,49.7,45.4,30.10,West,262,0.0,6.0,85,0.00,,---,0.00,VWS V14.01,2013-05-15 13:30:00,
2013-05-15 06:33:00,49.8,45.5,30.10,West,262,0.0,2.0,85,0.00,,---,0.00,VWS V14.01,2013-05-15 13:33:00,
2013-05-15 06:38:00,50.0,45.7,30.10,West,262,1.0,3.0,85,0.00,,---,0.00,VWS V14.01,2013-05-15 13:38:00,
2013-05-15 06:43:00,50.2,45.9,30.10,WSW,258,1.0,4.0,85,0.00,,---,0.00,VWS V14.01,2013-05-15 13:43:00,
2013-05-15 06:45:00,50.3,45.7,30.11,West,259,3.0,5.0,84,0.00,,---,0.00,VWS V14.01,2013-05-15 13:45:00,
2013-05-15 06:48:00,50.3,45.7,30.11,West,259,2.0,5.0,84,0.00,,---,0.00,VWS V14.01,2013-05-15 13:48:00,
2013-05-15 06:54:00,50.5,45.8,30.11,West,281,5.0,6.0,84,0.00,,---,0.00,VWS V14.01,2013-05-15 13:54:00,
2013-05-15 06:59:00,50.5,45.5,30.11,WNW,287,2.0,6.0,83,0.00,,---,0.00,VWS V14.01,2013-05-15 13:59:00,
2013-05-15 07:00:00,50.5,45.5,30.11,West,281,1.0,6.0,83,0.00,,---,0.00,VWS V14.01,2013-05-15 14:00:00,
2013-05-15 07:04:00,50.4,45.4,30.11,West,281,2.0,5.0,83,0.00,,---,0.00,VWS V14.01,2013-05-15 14:04:00,
2013-05-15 07:09:00,50.3,45.3,30.11,WNW,284,2.0,7.0,83,0.00,,---,0.00,VWS V14.01,2013-05-15 14:09:00,
2013-05-15 07:14:00,50.1,45.5,30.11,West,268,2.0,7.0,84,0.00,,---,0.00,VWS V14.01,2013-05-15 14:14:00,
2013-05-15 07:15:00,50.1,45.2,30.11,West,267,3.0,7.0,83,0.00,,---,0.00,VWS V14.01,2013-05-15 14:15:00,
2013-05-15 07:19:00,50.2,45.6,30.11,West,267,2.0,6.0,84,0.00,,---,0.00,VWS V14.01,2013-05-15 14:19:00,
2013-05-15 07:24:00,50.4,45.4,30.10,West,267,0.0,6.0,83,0.00,,---,0.00,VWS V14.01,2013-05-15 14:24:00,
2013-05-15 07:29:00,50.6,45.6,30.10,West,276,0.0,6.0,83,0.00,,---,0.00,VWS V14.01,2013-05-15 14:29:00,
2013-05-15 07:30:00,50.8,45.8,30.10,West,276,1.0,6.0,83,0.00,,---,0.00,VWS V14.01,2013-05-15 14:30:00,
2013-05-15 07:34:00,50.9,45.6,30.10,West,275,1.0,4.0,82,0.00,,---,0.00,VWS V14.01,2013-05-15 14:34:00,
2013-05-15 07:40:00,51.1,45.5,30.10,West,275,1.0,5.0,81,0.00,,---,0.00,VWS V14.01,2013-05-15 14:40:00,
2013-05-15 07:45:00,51.2,45.2,30.10,West,275,2.0,5.0,80,0.00,,---,0.00,VWS V14.01,2013-05-15 14:45:00,
2013-05-15 07:50:00,51.2,45.2,30.10,West,275,3.0,4.0,80,0.00,,---,0.00,VWS V14.01,2013-05-15 14:50:00,
2013-05-15 07:55:00,51.1,45.5,30.10,West,271,3.0,6.0,81,0.00,,---,0.00,VWS V14.01,2013-05-15 14:55:00,
2013-05-15 08:00:00,51.1,45.2,30.10,West,271,2.0,6.0,80,0.00,,---,0.00,VWS V14.01,2013-05-15 15:00:00,
2013-05-15 08:05:00,51.2,45.6,30.10,West,271,1.0,3.0,81,0.00,,---,0.00,VWS V14.01,2013-05-15 15:05:00,
2013-05-15 08:10:00,51.3,45.7,30.10,West,271,4.0,4.0,81,0.00,,---,0.00,VWS V14.01,2013-05-15 15:10:00,
2013-05-15 08:15:00,51.3,45.7,30.10,West,271,3.0,4.0,81,0.00,,---,0.00,VWS V14.01,2013-05-15 15:15:00,
2013-05-15 08:20:00,51.4,45.8,30.10,West,271,2.0,4.0,81,0.00,,---,0.00,VWS V14.01,2013-05-15 15:20:00,
2013-05-15 08:25:00,51.7,45.7,30.10,West,271,1.0,4.0,80,0.00,,---,0.00,VWS V14.01,2013-05-15 15:25:00,
2013-05-15 08:30:00,51.8,45.5,30.10,West,271,0.0,4.0,79,0.00,,---,0.00,VWS V14.01,2013-05-15 15:30:00,
2013-05-15 08:31:00,51.8,45.5,30.10,West,271,1.0,4.0,79,0.00,,---,0.00,VWS V14.01,2013-05-15 15:31:00,
2013-05-15 08:36:00,52.0,45.7,30.10,West,271,0.0,3.0,79,0.00,,---,0.00,VWS V14.01,2013-05-15 15:36:00,
2013-05-15 08:41:00,52.1,45.5,30.10,West,271,2.0,3.0,78,0.00,,---,0.00,VWS V14.01,2013-05-15 15:41:00,
2013-05-15 08:45:00,52.6,46.3,30.10,West,271,2.0,3.0,79,0.00,,---,0.00,VWS V14.01,2013-05-15 15:45:00,
2013-05-15 08:46:00,52.5,46.2,30.10,West,271,2.0,3.0,79,0.00,,---,0.00,VWS V14.01,2013-05-15 15:46:00,
2013-05-15 08:51:00,52.8,46.1,30.10,West,272,3.0,5.0,78,0.00,,---,0.00,VWS V14.01,2013-05-15 15:51:00,
2013-05-15 08:56:00,52.8,45.8,30.10,West,272,3.0,5.0,77,0.00,,---,0.00,VWS V14.01,2013-05-15 15:56:00,
2013-05-15 09:00:00,52.6,45.6,30.10,West,271,3.0,5.0,77,0.00,,---,0.00,VWS V14.01,2013-05-15 16:00:00,
2013-05-15 09:01:00,52.7,45.7,30.10,West,272,3.0,5.0,77,0.00,,---,0.00,VWS V14.01,2013-05-15 16:01:00,
2013-05-15 09:06:00,52.7,46.0,30.10,West,272,4.0,5.0,78,0.00,,---,0.00,VWS V14.01,2013-05-15 16:06:00,
2013-05-15 09:11:00,52.8,46.1,30.10,West,267,5.0,7.0,78,0.00,,---,0.00,VWS V14.01,2013-05-15 16:11:00,
2013-05-15 09:15:00,52.9,46.6,30.09,West,267,4.0,7.0,79,0.00,,---,0.00,VWS V14.01,2013-05-15 16:15:00,
2013-05-15 09:16:00,52.9,46.6,30.09,West,267,3.0,7.0,79,0.00,,---,0.00,VWS V14.01,2013-05-15 16:16:00,
2013-05-15 09:21:00,53.1,46.4,30.09,West,267,4.0,5.0,78,0.00,,---,0.00,VWS V14.01,2013-05-15 16:21:00,
2013-05-15 09:26:00,53.1,46.8,30.09,West,278,5.0,6.0,79,0.00,,---,0.00,VWS V14.01,2013-05-15 16:26:00,
2013-05-15 09:30:00,53.0,46.7,30.09,West,277,2.0,6.0,79,0.00,,---,0.00,VWS V14.01,2013-05-15 16:30:00,
2013-05-15 09:31:00,53.0,46.7,30.09,West,277,1.0,6.0,79,0.00,,---,0.00,VWS V14.01,2013-05-15 16:31:00,
2013-05-15 09:36:00,53.3,46.6,30.09,West,269,4.0,5.0,78,0.00,,---,0.00,VWS V14.01,2013-05-15 16:36:00,
2013-05-15 09:41:00,53.3,46.6,30.09,West,265,2.0,7.0,78,0.00,,---,0.00,VWS V14.01,2013-05-15 16:41:00,
2013-05-15 09:45:00,53.7,46.7,30.09,West,263,3.0,7.0,77,0.00,,---,0.00,VWS V14.01,2013-05-15 16:45:00,
2013-05-15 09:47:00,53.7,46.3,30.09,West,263,2.0,4.0,76,0.00,,---,0.00,VWS V14.01,2013-05-15 16:47:00,
2013-05-15 09:51:00,53.4,46.4,30.09,West,263,3.0,5.0,77,0.00,,---,0.00,VWS V14.01,2013-05-15 16:51:00,
2013-05-15 09:56:00,53.3,46.6,30.09,West,263,2.0,5.0,78,0.00,,---,0.00,VWS V14.01,2013-05-15 16:56:00,
2013-05-15 10:00:00,53.4,46.7,30.09,West,263,4.0,6.0,78,0.00,,---,0.00,VWS V14.01,2013-05-15 17:00:00,
2013-05-15 10:01:00,53.4,46.7,30.09,West,262,4.0,4.0,78,0.00,,---,0.00,VWS V14.01,2013-05-15 17:01:00,
2013-05-15 10:06:00,53.4,46.7,30.08,West,261,5.0,6.0,78,0.00,,---,0.00,VWS V14.01,2013-05-15 17:06:00,
2013-05-15 10:11:00,53.5,46.8,30.09,West,275,5.0,7.0,78,0.00,,---,0.00,VWS V14.01,2013-05-15 17:11:00,
2013-05-15 10:15:00,53.7,46.7,30.08,West,275,3.0,7.0,77,0.00,,---,0.00,VWS V14.01,2013-05-15 17:15:00,
2013-05-15 10:16:00,53.7,46.7,30.08,West,275,3.0,5.0,77,0.00,,---,0.00,VWS V14.01,2013-05-15 17:16:00,
2013-05-15 10:21:00,53.7,46.7,30.08,West,269,6.0,8.0,77,0.00,,---,0.00,VWS V14.01,2013-05-15 17:21:00,
2013-05-15 10:27:00,54.0,47.0,30.09,West,271,5.0,8.0,77,0.00,,---,0.00,VWS V14.01,2013-05-15 17:27:00,
2013-05-15 10:30:00,54.0,46.6,30.09,West,270,4.0,8.0,76,0.00,,---,0.00,VWS V14.01,2013-05-15 17:30:00,
2013-05-15 10:32:00,54.0,46.6,30.09,West,270,5.0,5.0,76,0.00,,---,0.00,VWS V14.01,2013-05-15 17:32:00,
2013-05-15 10:37:00,54.1,47.4,30.08,West,265,3.0,7.0,78,0.00,,---,0.00,VWS V14.01,2013-05-15 17:37:00,
2013-05-15 10:42:00,54.6,47.5,30.08,West,263,5.0,7.0,77,0.00,,---,0.00,VWS V14.01,2013-05-15 17:42:00,
2013-05-15 10:45:00,55.3,47.5,30.08,WSW,256,7.0,7.0,75,0.00,,---,0.00,VWS V14.01,2013-05-15 17:45:00,
2013-05-15 10:47:00,55.4,47.6,30.08,West,261,6.0,7.0,75,0.00,,---,0.00,VWS V14.01,2013-05-15 17:47:00,
2013-05-15 10:52:00,55.4,47.3,30.08,WSW,257,3.0,8.0,74,0.00,,---,0.00,VWS V14.01,2013-05-15 17:52:00,
2013-05-15 10:57:00,54.8,47.4,30.08,WSW,254,5.0,8.0,76,0.00,,---,0.00,VWS V14.01,2013-05-15 17:57:00,
2013-05-15 11:02:00,54.4,47.0,30.08,WSW,248,2.0,6.0,76,0.00,,---,0.00,VWS V14.01,2013-05-15 18:02:00,
2013-05-15 11:07:00,54.7,47.3,30.08,West,259,4.0,6.0,76,0.00,,---,0.00,VWS V14.01,2013-05-15 18:07:00,
2013-05-15 11:13:00,54.8,47.4,30.08,West,259,2.0,6.0,76,0.00,,---,0.00,VWS V14.01,2013-05-15 18:13:00,
2013-05-15 11:15:00,55.1,46.6,30.08,West,259,3.0,6.0,73,0.00,,---,0.00,VWS V14.01,2013-05-15 18:15:00,
2013-05-15 11:18:00,55.2,47.1,30.08,WSW,257,4.0,6.0,74,0.00,,---,0.00,VWS V14.01,2013-05-15 18:18:00,
2013-05-15 11:23:00,55.6,47.1,30.08,WSW,257,4.0,7.0,73,0.00,,---,0.00,VWS V14.01,2013-05-15 18:23:00,
2013-05-15 11:28:00,55.7,47.2,30.08,WSW,245,5.0,8.0,73,0.00,,---,0.00,VWS V14.01,2013-05-15 18:28:00,
2013-05-15 11:30:00,55.9,47.0,30.08,WSW,252,5.0,8.0,72,0.00,,---,0.00,VWS V14.01,2013-05-15 18:30:00,
2013-05-15 11:33:00,55.9,47.4,30.08,WSW,253,5.0,5.0,73,0.00,,---,0.00,VWS V14.01,2013-05-15 18:33:00,
2013-05-15 11:38:00,56.1,47.6,30.08,WSW,249,3.0,6.0,73,0.00,,---,0.00,VWS V14.01,2013-05-15 18:38:00,
2013-05-15 11:43:00,56.0,47.1,30.08,SW,232,2.0,6.0,72,0.00,,---,0.00,VWS V14.01,2013-05-15 18:43:00,
2013-05-15 11:45:00,56.5,48.0,30.08,SW,234,4.0,6.0,73,0.00,,---,0.00,VWS V14.01,2013-05-15 18:45:00,
2013-05-15 11:48:00,56.9,47.2,30.07,WSW,238,4.0,5.0,70,0.00,,---,0.00,VWS V14.01,2013-05-15 18:48:00,
2013-05-15 11:53:00,57.3,47.6,30.07,WSW,242,2.0,6.0,70,0.00,,---,0.00,VWS V14.01,2013-05-15 18:53:00,
2013-05-15 11:58:00,57.7,46.8,30.07,WSW,244,3.0,6.0,67,0.00,,---,0.00,VWS V14.01,2013-05-15 18:58:00,
2013-05-15 12:00:00,57.6,45.9,30.07,WSW,247,4.0,6.0,65,0.00,,---,0.00,VWS V14.01,2013-05-15 19:00:00,
2013-05-15 12:03:00,57.7,46.0,30.07,WSW,246,3.0,6.0,65,0.00,,---,0.00,VWS V14.01,2013-05-15 19:03:00,
2013-05-15 12:08:00,58.1,45.6,30.07,West,278,4.0,8.0,63,0.00,,---,0.00,VWS V14.01,2013-05-15 19:08:00,
2013-05-15 12:13:00,58.0,46.3,30.07,WSW,250,2.0,8.0,65,0.00,,---,0.00,VWS V14.01,2013-05-15 19:13:00,
2013-05-15 12:15:00,58.2,46.9,30.07,West,262,7.0,8.0,66,0.00,,---,0.00,VWS V14.01,2013-05-15 19:15:00,
2013-05-15 12:18:00,58.1,46.0,30.07,West,263,8.0,8.0,64,0.00,,---,0.00,VWS V14.01,2013-05-15 19:18:00,
2013-05-15 12:23:00,57.7,45.2,30.07,West,271,3.0,8.0,63,0.00,,---,0.00,VWS V14.01,2013-05-15 19:23:00,
2013-05-15 12:28:00,57.4,43.6,30.07,West,266,5.0,8.0,60,0.00,,---,0.00,VWS V14.01,2013-05-15 19:28:00,
2013-05-15 12:30:00,57.4,42.3,30.06,West,259,6.0,8.0,57,0.00,,---,0.00,VWS V14.01,2013-05-15 19:30:00,
2013-05-15 12:33:00,57.2,40.2,30.06,West,261,6.0,8.0,53,0.00,,---,0.00,VWS V14.01,2013-05-15 19:33:00,
2013-05-15 12:38:00,57.5,40.5,30.06,WSW,257,6.0,8.0,53,0.00,,---,0.00,VWS V14.01,2013-05-15 19:38:00,
2013-05-15 12:44:00,58.0,43.3,30.06,WSW,257,7.0,8.0,58,0.00,,---,0.00,VWS V14.01,2013-05-15 19:44:00,
2013-05-15 12:45:00,58.1,42.0,30.06,West,278,4.0,8.0,55,0.00,,---,0.00,VWS V14.01,2013-05-15 19:45:00,
2013-05-15 12:49:00,58.2,42.6,30.06,WSW,257,5.0,8.0,56,0.00,,---,0.00,VWS V14.01,2013-05-15 19:49:00,
2013-05-15 12:54:00,58.4,42.8,30.06,WSW,256,3.0,9.0,56,0.00,,---,0.00,VWS V14.01,2013-05-15 19:54:00,
2013-05-15 12:59:00,58.9,41.3,30.06,WSW,258,1.0,9.0,52,0.00,,---,0.00,VWS V14.01,2013-05-15 19:59:00,
2013-05-15 13:00:00,59.2,42.6,30.06,WSW,255,3.0,9.0,54,0.00,,---,0.00,VWS V14.01,2013-05-15 20:00:00,
2013-05-15 13:04:00,59.8,43.1,30.05,West,260,3.0,4.0,54,0.00,,---,0.00,VWS V14.01,2013-05-15 20:04:00,
2013-05-15 13:09:00,60.0,41.8,30.06,West,277,3.0,8.0,51,0.00,,---,0.00,VWS V14.01,2013-05-15 20:09:00,
2013-05-15 13:14:00,59.6,41.0,30.05,West,271,5.0,8.0,50,0.00,,---,0.00,VWS V14.01,2013-05-15 20:14:00,
2013-05-15 13:15:00,59.6,41.5,30.05,West,266,6.0,8.0,51,0.00,,---,0.00,VWS V14.01,2013-05-15 20:15:00,
2013-05-15 13:19:00,59.5,41.9,30.05,West,274,6.0,8.0,52,0.00,,---,0.00,VWS V14.01,2013-05-15 20:19:00,
2013-05-15 13:25:00,59.9,41.8,30.05,West,281,4.0,8.0,51,0.00,,---,0.00,VWS V14.01,2013-05-15 20:25:00,
2013-05-15 13:30:00,60.5,42.3,30.05,West,281,5.0,8.0,51,0.00,,---,0.00,VWS V14.01,2013-05-15 20:30:00,
2013-05-15 13:35:00,60.7,43.0,30.05,West,275,1.0,7.0,52,0.00,,---,0.00,VWS V14.01,2013-05-15 20:35:00,
2013-05-15 13:40:00,60.7,43.5,30.05,WNW,289,5.0,7.0,53,0.00,,---,0.00,VWS V14.01,2013-05-15 20:40:00,
2013-05-15 13:45:00,60.4,43.2,30.05,West,267,5.0,8.0,53,0.00,,---,0.00,VWS V14.01,2013-05-15 20:45:00,
2013-05-15 13:50:00,60.0,43.3,30.05,WSW,255,7.0,12.0,54,0.00,,---,0.00,VWS V14.01,2013-05-15 20:50:00,
2013-05-15 13:55:00,59.7,43.0,30.05,West,260,5.0,12.0,54,0.00,,---,0.00,VWS V14.01,2013-05-15 20:55:00,
2013-05-15 14:00:00,59.5,43.8,30.05,West,265,4.0,12.0,56,0.00,,---,0.00,VWS V14.01,2013-05-15 21:00:00,
2013-05-15 14:05:00,59.8,45.5,30.05,NW,315,3.0,6.0,59,0.00,,---,0.00,VWS V14.01,2013-05-15 21:05:00,
2013-05-15 14:10:00,59.9,46.4,30.05,WNW,293,4.0,8.0,61,0.00,,---,0.00,VWS V14.01,2013-05-15 21:10:00,
2013-05-15 14:15:00,60.2,47.2,30.05,NW,311,3.0,8.0,62,0.00,,---,0.00,VWS V14.01,2013-05-15 21:15:00,
2013-05-15 14:16:00,60.2,47.2,30.05,WNW,295,2.0,8.0,62,0.00,,---,0.00,VWS V14.01,2013-05-15 21:16:00,
2013-05-15 14:21:00,60.5,47.4,30.05,NW,323,5.0,7.0,62,0.00,,---,0.00,VWS V14.01,2013-05-15 21:21:00,
2013-05-15 14:26:00,60.6,47.1,30.05,NNW,338,3.0,8.0,61,0.00,,---,0.00,VWS V14.01,2013-05-15 21:26:00,
2013-05-15 14:30:00,60.9,46.0,30.05,West,276,1.0,8.0,58,0.00,,---,0.00,VWS V14.01,2013-05-15 21:30:00,
2013-05-15 14:31:00,60.9,46.0,30.05,West,276,3.0,8.0,58,0.00,,---,0.00,VWS V14.01,2013-05-15 21:31:00,
2013-05-15 14:36:00,61.1,45.8,30.05,NNW,329,4.0,7.0,57,0.00,,---,0.00,VWS V14.01,2013-05-15 21:36:00,
2013-05-15 14:41:00,61.1,44.8,30.05,NW,321,2.0,7.0,55,0.00,,---,0.00,VWS V14.01,2013-05-15 21:41:00,
2013-05-15 14:45:00,61.2,45.4,30.05,South,188,0.0,7.0,56,0.00,,---,0.00,VWS V14.01,2013-05-15 21:45:00,
2013-05-15 14:46:00,61.2,45.4,30.05,South,188,0.0,7.0,56,0.00,,---,0.00,VWS V14.01,2013-05-15 21:46:00,
2013-05-15 14:51:00,61.1,45.8,30.05,SE,132,4.0,5.0,57,0.00,,---,0.00,VWS V14.01,2013-05-15 21:51:00,
2013-05-15 14:56:00,61.3,46.9,30.05,NNE,13,2.0,6.0,59,0.00,,---,0.00,VWS V14.01,2013-05-15 21:56:00,
2013-05-15 15:00:00,61.3,46.9,30.05,NW,317,0.0,6.0,59,0.00,,---,0.00,VWS V14.01,2013-05-15 22:00:00,
2013-05-15 15:01:00,61.3,46.9,30.05,NW,315,3.0,3.0,59,0.00,,---,0.00,VWS V14.01,2013-05-15 22:01:00,
2013-05-15 15:06:00,61.1,46.7,30.05,WSW,240,2.0,5.0,59,0.00,,---,0.00,VWS V14.01,2013-05-15 22:06:00,
2013-05-15 15:11:00,60.8,46.4,30.05,WNW,294,3.0,11.0,59,0.00,,---,0.00,VWS V14.01,2013-05-15 22:11:00,
2013-05-15 15:15:00,60.4,46.5,30.05,NW,307,2.0,14.0,60,0.00,,---,0.00,VWS V14.01,2013-05-15 22:15:00,
2013-05-15 15:17:00,60.3,46.8,30.05,WNW,298,3.0,5.0,61,0.00,,---,0.00,VWS V14.01,2013-05-15 22:17:00,
2013-05-15 15:22:00,60.3,46.8,30.05,West,277,5.0,8.0,61,0.00,,---,0.00,VWS V14.01,2013-05-15 22:22:00,
2013-05-15 15:27:00,60.3,46.8,30.05,WNW,300,5.0,8.0,61,0.00,,---,0.00,VWS V14.01,2013-05-15 22:27:00,
2013-05-15 15:30:00,60.3,46.8,30.05,WNW,288,3.0,8.0,61,0.00,,---,0.00,VWS V14.01,2013-05-15 22:30:00,
2013-05-15 15:32:00,60.2,46.7,30.05,West,265,4.0,7.0,61,0.00,,---,0.00,VWS V14.01,2013-05-15 22:32:00,
2013-05-15 15:37:00,60.1,47.5,30.06,North,355,10.0,10.0,63,0.00,,---,0.00,VWS V14.01,2013-05-15 22:37:00,
2013-05-15 15:42:00,58.4,47.9,30.06,WSW,252,9.0,20.0,68,0.00,,---,0.00,VWS V14.01,2013-05-15 22:42:00,
2013-05-15 15:45:00,57.8,48.5,30.05,NW,311,9.0,20.0,71,0.00,,---,0.00,VWS V14.01,2013-05-15 22:45:00,
2013-05-15 15:48:00,57.5,48.6,30.06,West,273,10.0,15.0,72,0.00,,---,0.00,VWS V14.01,2013-05-15 22:48:00,
2013-05-15 15:53:00,57.0,48.8,30.06,West,259,7.0,17.0,74,0.00,,---,0.00,VWS V14.01,2013-05-15 22:53:00,
2013-05-15 15:58:00,56.7,49.2,30.06,NW,317,4.0,18.0,76,0.00,,---,0.00,VWS V14.01,2013-05-15 22:58:00,
2013-05-15 16:00:00,56.7,47.4,30.06,WNW,294,5.0,18.0,71,0.00,,---,0.00,VWS V14.01,2013-05-15 23:00:00,
2013-05-15 16:03:00,56.7,47.0,30.06,WNW,297,2.0,6.0,70,0.00,,---,0.00,VWS V14.01,2013-05-15 23:03:00,
2013-05-15 16:08:00,56.8,47.5,30.06,NE,47,1.0,10.0,71,0.00,,---,0.00,VWS V14.01,2013-05-15 23:08:00,
2013-05-15 16:13:00,56.8,47.5,30.06,SE,135,2.0,10.0,71,0.00,,---,0.00,VWS V14.01,2013-05-15 23:13:00,
2013-05-15 16:15:00,56.8,47.5,30.06,West,264,1.0,10.0,71,0.00,,---,0.00,VWS V14.01,2013-05-15 23:15:00,
2013-05-15 16:18:00,56.8,47.5,30.06,North,11,3.0,5.0,71,0.00,,---,0.00,VWS V14.01,2013-05-15 23:18:00,
2013-05-15 16:23:00,56.7,47.4,30.06,North,11,3.0,5.0,71,0.00,,---,0.00,VWS V14.01,2013-05-15 23:23:00,
2013-05-15 16:28:00,56.5,47.6,30.06,South,184,3.0,6.0,72,0.00,,---,0.00,VWS V14.01,2013-05-15 23:28:00,
2013-05-15 16:30:00,56.4,47.5,30.06,SE,140,2.0,7.0,72,0.00,,---,0.00,VWS V14.01,2013-05-15 23:30:00,
2013-05-15 16:33:00,56.3,47.8,30.06,SE,139,2.0,6.0,73,0.00,,---,0.00,VWS V14.01,2013-05-15 23:33:00,
2013-05-15 16:38:00,56.0,47.5,30.06,South,190,2.0,9.0,73,0.00,,---,0.00,VWS V14.01,2013-05-15 23:38:00,
2013-05-15 16:44:00,55.9,48.1,30.06,South,174,0.0,9.0,75,0.00,,---,0.00,VWS V14.01,2013-05-15 23:44:00,
2013-05-15 16:45:00,55.8,48.0,30.06,South,182,1.0,9.0,75,0.00,,---,0.00,VWS V14.01,2013-05-15 23:45:00,
2013-05-15 16:49:00,55.7,47.9,30.06,South,173,4.0,6.0,75,0.00,,---,0.00,VWS V14.01,2013-05-15 23:49:00,
2013-05-15 16:54:00,55.6,48.5,30.06,SE,141,0.0,8.0,77,0.01,,---,0.01,VWS V14.01,2013-05-15 23:54:00,
2013-05-15 16:59:00,55.5,48.4,30.06,SE,142,2.0,8.0,77,0.01,,---,0.01,VWS V14.01,2013-05-15 23:59:00,
2013-05-15 17:00:00,55.5,48.4,30.06,SE,136,1.0,8.0,77,0.01,,---,0.01,VWS V14.01,2013-05-16 00:00:00,
2013-05-15 17:04:00,55.5,48.4,30.06,SE,136,1.0,4.0,77,0.01,,---,0.01,VWS V14.01,2013-05-16 00:04:00,
2013-05-15 17:09:00,55.5,48.4,30.06,SE,146,5.0,6.0,77,0.02,,---,0.02,VWS V14.01,2013-05-16 00:09:00,
2013-05-15 17:15:00,55.4,48.3,30.06,SSE,151,5.0,10.0,77,0.02,,---,0.02,VWS V14.01,2013-05-16 00:15:00,
2013-05-15 17:20:00,55.3,49.2,30.06,SSE,151,0.0,4.0,80,0.02,,---,0.02,VWS V14.01,2013-05-16 00:20:00,
2013-05-15 17:25:00,55.3,48.9,30.06,SSE,163,1.0,8.0,79,0.02,,---,0.02,VWS V14.01,2013-05-16 00:25:00,
2013-05-15 17:30:00,55.3,49.2,30.06,SSE,163,2.0,8.0,80,0.02,,---,0.02,VWS V14.01,2013-05-16 00:30:00,
2013-05-15 17:35:00,55.2,49.5,30.06,SSE,163,1.0,6.0,81,0.02,,---,0.02,VWS V14.01,2013-05-16 00:35:00,
2013-05-15 17:40:00,55.5,49.8,30.06,SSE,165,2.0,7.0,81,0.02,,---,0.02,VWS V14.01,2013-05-16 00:40:00,
2013-05-15 17:45:00,55.6,49.9,30.05,South,170,1.0,7.0,81,0.02,,---,0.02,VWS V14.01,2013-05-16 00:45:00,
2013-05-15 17:50:00,55.7,49.3,30.05,South,169,5.0,6.0,79,0.02,,---,0.02,VWS V14.01,2013-05-16 00:50:00,
2013-05-15 17:55:00,55.6,49.5,30.05,South,169,2.0,6.0,80,0.02,,---,0.02,VWS V14.01,2013-05-16 00:55:00,
2013-05-15 18:00:00,55.6,49.5,30.05,South,169,2.0,6.0,80,0.02,,---,0.02,VWS V14.01,2013-05-16 01:00:00,
2013-05-15 18:05:00,55.7,49.6,30.05,SSE,168,2.0,5.0,80,0.01,,---,0.02,VWS V14.01,2013-05-16 01:05:00,
2013-05-15 18:10:00,55.7,50.0,30.05,SSE,161,4.0,5.0,81,0.01,,---,0.02,VWS V14.01,2013-05-16 01:10:00,
2013-05-15 18:15:00,55.6,49.9,30.05,SSE,161,4.0,5.0,81,0.01,,---,0.02,VWS V14.01,2013-05-16 01:15:00,
2013-05-15 18:20:00,55.4,49.3,30.05,SSE,154,1.0,7.0,80,0.00,,---,0.02,VWS V14.01,2013-05-16 01:20:00,
2013-05-15 18:25:00,55.5,50.1,30.05,SSW,211,0.0,7.0,82,0.00,,---,0.02,VWS V14.01,2013-05-16 01:25:00,
2013-05-15 18:30:00,55.4,50.0,30.05,SSE,155,2.0,7.0,82,0.00,,---,0.02,VWS V14.01,2013-05-16 01:30:00,
2013-05-15 18:35:00,55.4,51.0,30.05,West,273,2.0,4.0,85,0.00,,---,0.02,VWS V14.01,2013-05-16 01:35:00,
2013-05-15 18:40:00,55.3,49.9,30.04,SW,223,4.0,5.0,82,0.00,,---,0.02,VWS V14.01,2013-05-16 01:40:00,
2013-05-15 18:45:00,55.4,50.3,30.04,SW,223,2.0,5.0,83,0.00,,---,0.02,VWS V14.01,2013-05-16 01:45:00,
2013-05-15 18:46:00,55.4,50.3,30.04,SW,223,1.0,5.0,83,0.00,,---,0.02,VWS V14.01,2013-05-16 01:46:00,
2013-05-15 18:51:00,55.4,50.3,30.04,SW,223,2.0,3.0,83,0.00,,---,0.02,VWS V14.01,2013-05-16 01:51:00,
2013-05-15 18:56:00,55.4,50.0,30.04,SW,214,3.0,3.0,82,0.00,,---,0.02,VWS V14.01,2013-05-16 01:56:00,
2013-05-15 19:00:00,55.3,50.2,30.04,South,173,5.0,7.0,83,0.01,,---,0.03,VWS V14.01,2013-05-16 02:00:00,
2013-05-15 19:01:00,55.3,50.2,30.04,South,173,6.0,7.0,83,0.01,,---,0.03,VWS V14.01,2013-05-16 02:01:00,
2013-05-15 19:06:00,55.2,50.5,30.04,South,173,0.0,6.0,84,0.01,,---,0.03,VWS V14.01,2013-05-16 02:06:00,
2013-05-15 19:11:00,55.2,50.5,30.04,SSE,164,2.0,6.0,84,0.01,,---,0.03,VWS V14.01,2013-05-16 02:11:00,
2013-05-15 19:15:00,55.2,50.5,30.04,SSE,163,4.0,6.0,84,0.01,,---,0.03,VWS V14.01,2013-05-16 02:15:00,
2013-05-15 19:16:00,55.2,50.5,30.04,SSE,163,1.0,6.0,84,0.01,,---,0.03,VWS V14.01,2013-05-16 02:16:00,
2013-05-15 19:21:00,55.2,50.8,30.04,SSE,165,0.0,6.0,85,0.01,,---,0.03,VWS V14.01,2013-05-16 02:21:00,
2013-05-15 19:26:00,55.3,50.9,30.04,SSE,165,1.0,6.0,85,0.01,,---,0.03,VWS V14.01,2013-05-16 02:26:00,
2013-05-15 19:30:00,55.4,51.0,30.04,SSE,165,0.0,6.0,85,0.01,,---,0.03,VWS V14.01,2013-05-16 02:30:00,
2013-05-15 19:31:00,55.4,51.0,30.04,SSE,165,0.0,0.0,85,0.01,,---,0.03,VWS V14.01,2013-05-16 02:31:00,
2013-05-15 19:36:00,55.4,51.3,30.04,SSE,165,1.0,4.0,86,0.01,,---,0.03,VWS V14.01,2013-05-16 02:36:00,
2013-05-15 19:41:00,55.4,51.3,30.04,SSE,165,2.0,4.0,86,0.01,,---,0.03,VWS V14.01,2013-05-16 02:41:00,
2013-05-15 19:45:00,55.4,51.0,30.04,SE,145,5.0,5.0,85,0.01,,---,0.03,VWS V14.01,2013-05-16 02:45:00,
2013-05-15 19:47:00,55.4,51.0,30.03,SE,145,0.0,5.0,85,0.01,,---,0.03,VWS V14.01,2013-05-16 02:47:00,
2013-05-15 19:52:00,55.3,50.9,30.04,SSE,151,1.0,6.0,85,0.01,,---,0.03,VWS V14.01,2013-05-16 02:52:00,
2013-05-15 19:57:00,55.3,51.2,30.04,SE,138,4.0,8.0,86,0.01,,---,0.03,VWS V14.01,2013-05-16 02:57:00,
2013-05-15 20:00:00,55.1,51.0,30.04,ESE,120,4.0,8.0,86,0.01,,---,0.03,VWS V14.01,2013-05-16 03:00:00,
2013-05-15 20:02:00,55.1,51.0,30.04,ESE,121,2.0,4.0,86,0.00,,---,0.03,VWS V14.01,2013-05-16 03:02:00,
2013-05-15 20:07:00,55.0,51.2,30.04,ESE,118,5.0,8.0,87,0.00,,---,0.03,VWS V14.01,2013-05-16 03:07:00,
2013-05-15 20:12:00,54.8,51.3,30.04,ESE,110,5.0,8.0,88,0.00,,---,0.03,VWS V14.01,2013-05-16 03:12:00,
2013-05-15 20:15:00,54.6,51.1,30.04,SE,136,7.0,8.0,88,0.00,,---,0.03,VWS V14.01,2013-05-16 03:15:00,
2013-05-15 20:17:00,54.5,51.0,30.04,SE,137,2.0,8.0,88,0.00,,---,0.03,VWS V14.01,2013-05-16 03:17:00,
2013-05-15 20:22:00,54.4,51.2,30.03,SE,131,6.0,9.0,89,0.00,,---,0.03,VWS V14.01,2013-05-16 03:22:00,
2013-05-15 20:28:00,54.3,51.1,30.03,ESE,115,6.0,9.0,89,0.00,,---,0.03,VWS V14.01,2013-05-16 03:28:00,
2013-05-15 20:30:00,54.2,50.7,30.03,SE,124,4.0,10.0,88,0.00,,---,0.03,VWS V14.01,2013-05-16 03:30:00,
2013-05-15 20:33:00,54.2,50.7,30.03,SE,128,6.0,9.0,88,0.00,,---,0.03,VWS V14.01,2013-05-16 03:33:00,
2013-05-15 20:38:00,54.1,50.6,30.04,SE,126,5.0,11.0,88,0.00,,---,0.03,VWS V14.01,2013-05-16 03:38:00,
2013-05-15 20:43:00,54.1,50.3,30.04,ESE,104,2.0,11.0,87,0.00,,---,0.03,VWS V14.01,2013-05-16 03:43:00,
2013-05-15 20:45:00,54.1,50.3,30.04,SE,133,7.0,11.0,87,0.00,,---,0.03,VWS V14.01,2013-05-16 03:45:00,
2013-05-15 20:48:00,54.1,50.3,30.04,ESE,115,7.0,10.0,87,0.00,,---,0.03,VWS V14.01,2013-05-16 03:48:00,
2013-05-15 20:53:00,54.2,50.4,30.04,SE,137,7.0,10.0,87,0.00,,---,0.03,VWS V14.01,2013-05-16 03:53:00,
2013-05-15 20:58:00,54.2,50.1,30.04,ESE,120,5.0,10.0,86,0.00,,---,0.03,VWS V14.01,2013-05-16 03:58:00,
2013-05-15 21:01:00,54.3,50.5,30.04,SE,124,7.0,10.0,87,0.00,,---,0.03,VWS V14.01,2013-05-16 04:01:00,
2013-05-15 21:06:00,54.5,50.7,30.04,SE,138,6.0,7.0,87,0.00,,---,0.03,VWS V14.01,2013-05-16 04:06:00,
2013-05-15 21:11:00,54.5,50.4,30.04,SE,126,5.0,8.0,86,0.00,,---,0.03,VWS V14.01,2013-05-16 04:11:00,
2013-05-15 21:15:00,54.5,50.4,30.04,ESE,122,5.0,10.0,86,0.00,,---,0.03,VWS V14.01,2013-05-16 04:15:00,
2013-05-15 21:16:00,54.5,50.4,30.04,ESE,107,6.0,6.0,86,0.00,,---,0.03,VWS V14.01,2013-05-16 04:16:00,
2013-05-15 21:21:00,54.6,50.8,30.04,SE,130,1.0,6.0,87,0.00,,---,0.03,VWS V14.01,2013-05-16 04:21:00,
2013-05-15 21:26:00,54.7,50.6,30.04,ESE,122,1.0,6.0,86,0.00,,---,0.03,VWS V14.01,2013-05-16 04:26:00,
2013-05-15 21:30:00,54.8,50.7,30.04,ESE,122,2.0,6.0,86,0.00,,---,0.03,VWS V14.01,2013-05-16 04:30:00,
2013-05-15 21:31:00,54.8,50.7,30.04,ESE,122,2.0,2.0,86,0.00,,---,0.03,VWS V14.01,2013-05-16 04:31:00,
2013-05-15 21:36:00,54.8,50.7,30.04,ESE,122,0.0,4.0,86,0.00,,---,0.03,VWS V14.01,2013-05-16 04:36:00,
2013-05-15 21:41:00,54.9,50.5,30.04,ESE,123,0.0,6.0,85,0.00,,---,0.03,VWS V14.01,2013-05-16 04:41:00,
2013-05-15 21:45:00,55.0,50.6,30.05,ESE,121,0.0,6.0,85,0.00,,---,0.03,VWS V14.01,2013-05-16 04:45:00,
2013-05-15 21:46:00,55.0,50.6,30.05,ESE,121,0.0,0.0,85,0.00,,---,0.03,VWS V14.01,2013-05-16 04:46:00,
2013-05-15 21:51:00,54.9,50.8,30.05,SE,140,1.0,6.0,86,0.00,,---,0.03,VWS V14.01,2013-05-16 04:51:00,
2013-05-15 21:56:00,54.9,50.8,30.05,SSE,160,1.0,6.0,86,0.00,,---,0.03,VWS V14.01,2013-05-16 04:56:00,
2013-05-15 22:00:00,54.7,50.9,30.05,SSE,160,5.0,6.0,87,0.00,,---,0.03,VWS V14.01,2013-05-16 05:00:00,
2013-05-15 22:01:00,54.7,50.9,30.05,SSE,160,5.0,5.0,87,0.00,,---,0.03,VWS V14.01,2013-05-16 05:01:00,
2013-05-15 22:06:00,54.5,51.0,30.05,SSE,157,2.0,6.0,88,0.00,,---,0.03,VWS V14.01,2013-05-16 05:06:00,
2013-05-15 22:11:00,54.5,51.3,30.05,SSE,157,1.0,6.0,89,0.00,,---,0.03,VWS V14.01,2013-05-16 05:11:00,
2013-05-15 22:15:00,54.4,51.2,30.05,SSE,157,2.0,6.0,89,0.00,,---,0.03,VWS V14.01,2013-05-16 05:15:00,
2013-05-15 22:16:00,54.4,51.2,30.05,SSE,157,2.0,2.0,89,0.00,,---,0.03,VWS V14.01,2013-05-16 05:16:00,
2013-05-15 22:21:00,54.3,51.1,30.05,SSE,157,1.0,4.0,89,0.00,,---,0.03,VWS V14.01,2013-05-16 05:21:00,
2013-05-15 22:26:00,54.3,51.4,30.05,SSE,157,0.0,4.0,90,0.00,,---,0.03,VWS V14.01,2013-05-16 05:26:00,
2013-05-15 22:30:00,54.4,51.5,30.05,SSE,157,1.0,4.0,90,0.00,,---,0.03,VWS V14.01,2013-05-16 05:30:00,
2013-05-15 22:31:00,54.4,51.5,30.04,SSE,157,0.0,1.0,90,0.00,,---,0.03,VWS V14.01,2013-05-16 05:31:00,
2013-05-15 22:36:00,54.2,51.3,30.04,SSE,159,6.0,8.0,90,0.00,,---,0.03,VWS V14.01,2013-05-16 05:36:00,
2013-05-15 22:41:00,54.1,51.5,30.04,SSE,159,0.0,8.0,91,0.00,,---,0.03,VWS V14.01,2013-05-16 05:41:00,
2013-05-15 22:45:00,54.1,51.5,30.04,SSE,159,0.0,8.0,91,0.00,,---,0.03,VWS V14.01,2013-05-16 05:45:00,
2013-05-15 22:46:00,54.1,51.5,30.04,SSE,159,0.0,8.0,91,0.00,,---,0.03,VWS V14.01,2013-05-16 05:46:00,
2013-05-15 22:51:00,54.1,51.5,30.04,SSE,159,0.0,4.0,91,0.00,,---,0.03,VWS V14.01,2013-05-16 05:51:00,
2013-05-15 22:56:00,54.1,51.8,30.04,SSE,157,0.0,7.0,92,0.00,,---,0.03,VWS V14.01,2013-05-16 05:56:00,
2013-05-15 23:00:00,54.2,51.9,30.04,SSE,157,1.0,7.0,92,0.00,,---,0.03,VWS V14.01,2013-05-16 06:00:00,
2013-05-15 23:01:00,54.2,51.9,30.04,SSE,157,1.0,7.0,92,0.00,,---,0.03,VWS V14.01,2013-05-16 06:01:00,
2013-05-15 23:06:00,54.2,51.9,30.04,SSE,157,0.0,4.0,92,0.00,,---,0.03,VWS V14.01,2013-05-16 06:06:00,
2013-05-15 23:11:00,54.3,52.0,30.04,SSE,157,2.0,4.0,92,0.00,,---,0.03,VWS V14.01,2013-05-16 06:11:00,
2013-05-15 23:15:00,54.3,52.0,30.04,SE,138,4.0,6.0,92,0.00,,---,0.03,VWS V14.01,2013-05-16 06:15:00,
2013-05-15 23:16:00,54.3,52.0,30.04,SE,138,4.0,6.0,92,0.00,,---,0.03,VWS V14.01,2013-05-16 06:16:00,
2013-05-15 23:21:00,54.3,52.0,30.04,SE,135,2.0,5.0,92,0.00,,---,0.03,VWS V14.01,2013-05-16 06:21:00,
2013-05-15 23:26:00,54.2,51.6,30.03,SE,134,0.0,5.0,91,0.00,,---,0.03,VWS V14.01,2013-05-16 06:26:00,
2013-05-15 23:30:00,54.3,51.7,30.04,SE,134,0.0,5.0,91,0.00,,---,0.03,VWS V14.01,2013-05-16 06:30:00,
2013-05-15 23:31:00,54.3,51.7,30.04,SE,134,0.0,5.0,91,0.00,,---,0.03,VWS V14.01,2013-05-16 06:31:00,
2013-05-15 23:36:00,54.2,51.3,30.03,SE,130,5.0,6.0,90,0.00,,---,0.03,VWS V14.01,2013-05-16 06:36:00,
2013-05-15 23:41:00,54.2,51.3,30.04,ESE,117,4.0,7.0,90,0.00,,---,0.03,VWS V14.01,2013-05-16 06:41:00,
2013-05-15 23:45:00,54.0,51.1,30.04,ESE,105,5.0,9.0,90,0.01,,---,0.04,VWS V14.01,2013-05-16 06:45:00,
2013-05-15 23:46:00,54.0,51.1,30.04,ESE,118,6.0,9.0,90,0.01,,---,0.04,VWS V14.01,2013-05-16 06:46:00,
2013-05-15 23:51:00,54.0,51.4,30.04,SE,128,6.0,8.0,91,0.01,,---,0.04,VWS V14.01,2013-05-16 06:51:00,
2013-05-15 23:56:00,54.0,51.4,30.04,ESE,119,6.0,8.0,91,0.01,,---,0.04,VWS V14.01,2013-05-16 06:56:00,